[[{"header":{"parameterUnit":"m.s-1","parameterCategory":1,"la1":30.2991,"la2":30.254,"lo1":-89.0895,"lo2":-89.0444,"dy":0.0017,"dx":0.0017,"nx":28,"ny":28,"refTime":"2023-07-23T03:00:00:Z","depth":0,"parameterNumber":2,"parameterNumberName":"U-component_of_WINDS"},"data":[0,0,0,0,0,0,0,0,0,0,0,0,0,0,0,0,0,0,0,0,0,0,0,0,0,0,0,0,0,0,0,0,0,0,0,0,0,0,0,0,0,0,0,0,0,0,0,0,0,0,0,0,0,0,0,0,0,0,0.8237,0.8238,0,0.8341,0.8342,0.8344,0.8354,0.8353,0.8352,0.8351,0.8464,0.8468,0.8472,0,0,0,0,0,0,0,0,0,0,0,0,0,0.8053,0.8056,0.8237,0.8238,0.824,0.8341,0.8342,0.8344,0.8354,0.8353,0.8352,0.8351,0.8462,0.8467,0.8472,0,0,0,0,0,0,0,0,0,0,0,0,0,0.8143,0.8057,0.8237,0.8257,0.826,0.8341,0.8342,0.8344,0.8355,0.8353,0.8351,0.835,0.8461,0.8467,0.8473,0.8542,0,0,0.8491,0.8494,0,0,0,0,0,0,0,0,0.8138,0.815,0.8253,0.8256,0.8259,0.8333,0.8319,0.8411,0.8355,0.8319,0.8351,0.8349,0.8422,0.8431,0.8454,0.8548,0.8553,0.8492,0.8495,0.8498,0.85,0,0,0,0,0,0,0,0.8131,0.8145,0.8279,0.8254,0.8258,0.8263,0.8274,0.8336,0.8379,0.8322,0.8323,0.8335,0.8423,0.8449,0.8457,0.8554,0.8491,0.8497,0.8501,0.8503,0.8711,0.8713,0,0,0,0,0,0,0.8121,0.814,0.8275,0.8282,0.8193,0.8267,0.828,0.8311,0.8378,0.8386,0.8336,0.8335,0.8439,0.845,0.8461,0.8549,0.8498,0.8503,0.8507,0.8709,0.8712,0.8714,0,0,0,0,0,0,0.8117,0.8133,0.8271,0.8211,0.8229,0.8272,0.8307,0.8314,0.8339,0.8388,0.8397,0.8354,0.8438,0.8453,0.8522,0.8553,0.8506,0.8512,0.8707,0.871,0.8713,0.8724,0,0,0,0,0,0,0.8111,0.8131,0.8157,0.8211,0.8232,0.8329,0.8309,0.8317,0.8349,0.8348,0.8407,0.8415,0.8438,0.8513,0.8528,0.856,0.8516,0.8705,0.8708,0.8712,0.8721,0.8726,0.8731,0,0,0,0,0,0.8105,0.8157,0.8158,0.8175,0.8265,0.833,0.8342,0.8366,0.8351,0.8378,0.841,0.8414,0.8546,0.852,0.8537,0.8572,0.8703,0.8707,0.8711,0.8718,0.8725,0.8731,0,0,0,0,0,0,0.8108,0.8165,0.8167,0.8238,0.8279,0.8332,0.8368,0.8372,0.842,0.8418,0.8446,0.846,0.8528,0.8556,0.8526,0.8643,0.8623,0.8631,0.8623,0.863,0.8635,0.8628,0.8521,0,0,0,0,0,0.8116,0.8163,0.821,0.8269,0.8289,0.8324,0.8354,0.8368,0.8412,0.8431,0.8467,0.8512,0.8564,0.8598,0.8648,0.8723,0.8738,0.8756,0.8761,0.8765,0.8773,0.8817,0.8826,0.8728,0.8728,0.8728,0,0,0.8136,0.8172,0.82,0.827,0.8304,0.8353,0.8339,0.8392,0.843,0.8439,0.8507,0.8535,0.8587,0.866,0.8694,0.8686,0.8802,0.877,0.8773,0.8779,0.8822,0.8831,0.8839,0.8731,0.873,0.873,0,0,0.8196,0.8227,0.828,0.8313,0.8363,0.8386,0.8398,0.845,0.8469,0.8536,0.8545,0.859,0.8678,0.8716,0.8746,0.8818,0.8825,0.8834,0.8863,0.8906,0.8913,0.892,0.8949,0.8959,0.884,0.8841,0.8841,0,0.8215,0.8288,0.8307,0.836,0.8391,0.8398,0.8453,0.8485,0.855,0.8572,0.856,0.8671,0.8707,0.8789,0.8807,0.883,0.8847,0.8829,0.891,0.8917,0.8924,0.8952,0.8962,0.8842,0.8841,0.8841,0.8841,0,0.8309,0.836,0.8396,0.8456,0.8491,0.8545,0.8574,0.8607,0.8617,0.8641,0.8711,0.8753,0.8812,0.8832,0.8843,0.8917,0.891,0.8904,0.8885,0.8934,0.8961,0.8972,0.8843,0.8843,0.8842,0.8842,0,0,0.8379,0.8447,0.846,0.8488,0.8542,0.8583,0.8636,0.8692,0.8721,0.8765,0.8813,0.8886,0.888,0.8914,0.8929,0.8966,0.9023,0.8956,0.8957,0.8969,0.911,0.9117,0.9128,0.9026,0.9028,0.9029,0.9106,0,0.8449,0.8543,0.8561,0.8644,0.8692,0.8698,0.8746,0.8785,0.8809,0.8854,0.8881,0.8933,0.892,0.8941,0.8977,0.9009,0.9053,0.9003,0.9074,0.9076,0.9064,0.9142,0.915,0.9221,0.9116,0.9118,0.9119,0,0.8544,0.8587,0.8675,0.8722,0.8743,0.8785,0.8838,0.888,0.8925,0.8939,0.8976,0.8987,0.9045,0.902,0.9102,0.9068,0.9097,0.9117,0.912,0.9131,0.9104,0.9158,0.9243,0.9255,0.9136,0.9134,0.9133,0,0.859,0.867,0.8733,0.8756,0.8812,0.8842,0.8867,0.891,0.8942,0.8988,0.901,0.9062,0.9093,0.9134,0.9159,0.9138,0.924,0.9217,0.9257,0.9256,0.9282,0.9281,0.9376,0.9294,0.9294,0.9294,0.9293,0,0.8668,0.8722,0.8754,0.8794,0.8854,0.8874,0.8934,0.896,0.8997,0.9043,0.9051,0.9094,0.9123,0.917,0.919,0.9256,0.9269,0.9285,0.929,0.9286,0.9285,0.9309,0.9307,0.9296,0.9296,0.9295,0.9295,0,0.8732,0.8755,0.8825,0.8871,0.8884,0.8927,0.8968,0.9007,0.9028,0.9086,0.9101,0.9137,0.9193,0.9221,0.9291,0.9305,0.9381,0.9381,0.9365,0.9368,0.9408,0.9405,0.9526,0.9544,0.9446,0.9447,0.9447,0,0.8783,0.8824,0.8874,0.8903,0.8929,0.8977,0.9009,0.9029,0.9063,0.9116,0.915,0.9205,0.9252,0.9342,0.9376,0.943,0.9434,0.9472,0.9443,0.9438,0.9439,0.9438,0.9443,0.9479,0.948,0.9481,0.9482,0,0.8871,0.888,0.8925,0.8974,0.9011,0.9051,0.9091,0.9115,0.9142,0.918,0.9236,0.9272,0.9342,0.9399,0.9455,0.9483,0.9489,0.949,0.9503,0.9502,0.9492,0.9501,0.9384,0.9488,0.9488,0.9487,0.9487,0.9487,0.8933,0.897,0.901,0.9061,0.9091,0.9128,0.9167,0.9192,0.9239,0.9297,0.9305,0.9366,0.941,0.9485,0.9515,0.9564,0.9556,0.9574,0.9579,0.9584,0.9588,0.948,0.9574,0.9574,0.9574,0.9574,0.9574,0,0.9025,0.905,0.9095,0.9149,0.9189,0.9185,0.9228,0.9263,0.9315,0.9354,0.9398,0.9463,0.9518,0.9554,0.961,0.9642,0.9646,0.9657,0.9657,0.9664,0.959,0.9575,0.9653,0.9653,0.9653,0.9652,0.9652,0.9652,0.9077,0.9141,0.9154,0.9233,0.9259,0.9316,0.9342,0.9376,0.9407,0.9479,0.9523,0.9545,0.9584,0.9642,0.9692,0.9701,0.9724,0.9735,0.9745,0.9677,0.9669,0.9661,0.9647,0.9738,0.9738,0.9815,0.9815,0.9816]},{"header":{"parameterUnit":"m.s-1","parameterCategory":1,"la1":30.2991,"la2":30.254,"lo1":-89.0895,"lo2":-89.0444,"dy":0.0017,"dx":0.0017,"nx":28,"ny":28,"refTime":"2023-07-23T03:00:00:Z","depth":0,"parameterNumber":3,"parameterNumberName":"V-component_of_WINDS"},"data":[0,0,0,0,0,0,0,0,0,0,0,0,0,0,0,0,0,0,0,0,0,0,0,0,0,0,0,0,0,0,0,0,0,0,0,0,0,0,0,0,0,0,0,0,0,0,0,0,0,0,0,0,0,0,0,0,0,0,-1.9589,-1.959,0,-1.9698,-1.9699,-1.97,-1.9705,-1.9703,-1.9702,-1.9701,-1.9813,-1.9817,-1.9821,0,0,0,0,0,0,0,0,0,0,0,0,0,-1.9388,-1.9392,-1.9589,-1.959,-1.9592,-1.9698,-1.9699,-1.9701,-1.9705,-1.9703,-1.9702,-1.97,-1.9812,-1.9817,-1.9822,0,0,0,0,0,0,0,0,0,0,0,0,0,-1.9484,-1.9393,-1.9589,-1.9607,-1.9609,-1.9697,-1.9699,-1.9701,-1.9705,-1.9703,-1.9701,-1.97,-1.981,-1.9816,-1.9822,-1.99,0,0,-1.9842,-1.9844,0,0,0,0,0,0,0,0,-1.9478,-1.9491,-1.9603,-1.9606,-1.9609,-1.9686,-1.9669,-1.9768,-1.9706,-1.9669,-1.9701,-1.9699,-1.9772,-1.9782,-1.9806,-1.9905,-1.991,-1.9842,-1.9846,-1.9849,-1.985,0,0,0,0,0,0,0,-1.9472,-1.9487,-1.9632,-1.9604,-1.9608,-1.961,-1.9622,-1.9688,-1.973,-1.9672,-1.9673,-1.9685,-1.9774,-1.98,-1.9809,-1.9912,-1.9842,-1.9848,-1.9851,-1.9854,-2.0082,-2.0084,0,0,0,0,0,0,-1.9461,-1.9481,-1.9629,-1.9635,-1.9538,-1.9615,-1.9628,-1.9663,-1.9729,-1.9738,-1.9687,-1.9685,-1.979,-1.9802,-1.9813,-1.9909,-1.9849,-1.9854,-1.9858,-2.0079,-2.0082,-2.0085,0,0,0,0,0,0,-1.9457,-1.9475,-1.9624,-1.9558,-1.9578,-1.9621,-1.966,-1.9666,-1.9693,-1.9741,-1.9748,-1.9706,-1.9789,-1.9804,-1.9879,-1.9913,-1.9857,-1.9863,-2.0077,-2.008,-2.0083,-2.0102,0,0,0,0,0,0,-1.9451,-1.9473,-1.9502,-1.9559,-1.9581,-1.9688,-1.9662,-1.967,-1.9703,-1.9702,-1.9761,-1.9769,-1.9789,-1.9869,-1.9885,-1.9921,-1.9868,-2.0074,-2.0078,-2.0082,-2.0098,-2.0105,-2.0111,0,0,0,0,0,-1.9444,-1.9503,-1.9504,-1.9521,-1.9618,-1.9689,-1.9702,-1.9724,-1.9706,-1.9736,-1.9768,-1.9767,-1.9907,-1.9877,-1.9894,-1.9933,-2.0072,-2.0077,-2.0082,-2.0095,-2.0104,-2.0111,0,0,0,0,0,0,-1.9449,-1.951,-1.9512,-1.9591,-1.9635,-1.969,-1.9729,-1.9732,-1.9782,-1.9779,-1.9805,-1.9818,-1.9892,-1.992,-1.9885,-2.0012,-1.9987,-1.9996,-1.9991,-2.0,-2.0006,-1.9998,-1.9873,0,0,0,0,0,-1.9459,-1.9511,-1.9562,-1.9627,-1.9649,-1.9685,-1.9717,-1.973,-1.9777,-1.9795,-1.9832,-1.9878,-1.9932,-1.9968,-2.002,-2.0102,-2.0116,-2.0137,-2.0144,-2.0149,-2.0157,-2.0204,-2.0214,-2.0101,-2.0101,-2.0101,0,0,-1.948,-1.9521,-1.9552,-1.9629,-1.9664,-1.9719,-1.9701,-1.9758,-1.9799,-1.9804,-1.9877,-1.9906,-1.9959,-2.0038,-2.0074,-2.0063,-2.0191,-2.0156,-2.0159,-2.0164,-2.021,-2.0221,-2.023,-2.0105,-2.0104,-2.0104,0,0,-1.9547,-1.9582,-1.9641,-1.9677,-1.9732,-1.9756,-1.977,-1.9825,-1.9844,-1.9918,-1.9923,-1.9973,-2.0065,-2.0104,-2.0135,-2.0218,-2.022,-2.0235,-2.0269,-2.0315,-2.0324,-2.0332,-2.0363,-2.0373,-2.0242,-2.0242,-2.0242,0,-1.9567,-1.9648,-1.967,-1.9729,-1.9763,-1.9771,-1.9831,-1.9865,-1.9934,-1.9958,-1.9944,-2.0062,-2.0098,-2.0187,-2.0208,-2.0233,-2.025,-2.0228,-2.0321,-2.0329,-2.0337,-2.0367,-2.0378,-2.0244,-2.0244,-2.0243,-2.0243,0,-1.9671,-1.9727,-1.9768,-1.9834,-1.9873,-1.9932,-1.9964,-2.0001,-2.0011,-2.0037,-2.0113,-2.0157,-2.0219,-2.0241,-2.0252,-2.0332,-2.0324,-2.0315,-2.0291,-2.0349,-2.0377,-2.0389,-2.0246,-2.0245,-2.0245,-2.0245,0,0,-1.9743,-1.9822,-1.9836,-1.9867,-1.9929,-1.9973,-2.0033,-2.0094,-2.0126,-2.0174,-2.0225,-2.0305,-2.0298,-2.0334,-2.0348,-2.0388,-2.0453,-2.0375,-2.0377,-2.0389,-2.0546,-2.0553,-2.0565,-2.0455,-2.0457,-2.0459,-2.0542,0,-1.9817,-1.9923,-1.9945,-2.0037,-2.009,-2.0099,-2.0152,-2.0195,-2.0222,-2.0271,-2.03,-2.0357,-2.0343,-2.0365,-2.0404,-2.0437,-2.0485,-2.0431,-2.0504,-2.0506,-2.0491,-2.058,-2.0587,-2.0663,-2.0553,-2.0555,-2.0557,0,-1.9917,-1.9968,-2.0065,-2.0121,-2.0144,-2.019,-2.0249,-2.0296,-2.0347,-2.0363,-2.0404,-2.0415,-2.0479,-2.0452,-2.0541,-2.0503,-2.0535,-2.0555,-2.0559,-2.0567,-2.0535,-2.0591,-2.0688,-2.07,-2.0574,-2.0573,-2.0571,0,-1.9961,-2.0053,-2.0124,-2.015,-2.0217,-2.0249,-2.0279,-2.0328,-2.0363,-2.0415,-2.0439,-2.0497,-2.0529,-2.0575,-2.0602,-2.0579,-2.069,-2.0664,-2.0706,-2.0705,-2.0729,-2.0727,-2.0832,-2.0748,-2.0748,-2.0748,-2.0747,0,-2.0042,-2.0101,-2.0144,-2.0188,-2.0255,-2.0281,-2.0347,-2.0377,-2.0421,-2.0471,-2.0482,-2.0529,-2.0562,-2.0614,-2.0636,-2.0707,-2.0721,-2.0737,-2.0742,-2.0736,-2.0734,-2.0757,-2.0753,-2.0751,-2.075,-2.0749,-2.0749,0,-2.0102,-2.0133,-2.0211,-2.0268,-2.0284,-2.0331,-2.038,-2.0424,-2.045,-2.0514,-2.053,-2.0573,-2.0635,-2.0666,-2.0743,-2.0758,-2.0839,-2.084,-2.0822,-2.0824,-2.0864,-2.086,-2.0989,-2.1007,-2.091,-2.0911,-2.0911,0,-2.0151,-2.0197,-2.026,-2.0294,-2.0324,-2.0379,-2.0416,-2.0444,-2.0482,-2.0544,-2.0581,-2.0643,-2.0694,-2.0793,-2.0831,-2.0891,-2.0895,-2.0936,-2.0904,-2.0897,-2.0897,-2.0894,-2.0899,-2.0941,-2.0942,-2.0943,-2.0944,0,-2.0236,-2.025,-2.0302,-2.0361,-2.0405,-2.0452,-2.0499,-2.0527,-2.0563,-2.0605,-2.0669,-2.0709,-2.0788,-2.0851,-2.0913,-2.0945,-2.0951,-2.0953,-2.0967,-2.0961,-2.0949,-2.0957,-2.0838,-2.095,-2.095,-2.0949,-2.0949,-2.0948,-2.0293,-2.0335,-2.0386,-2.0445,-2.0483,-2.0527,-2.0571,-2.0604,-2.0657,-2.0723,-2.0737,-2.0805,-2.0856,-2.0941,-2.0974,-2.1028,-2.102,-2.1038,-2.1043,-2.1048,-2.105,-2.094,-2.104,-2.104,-2.104,-2.1039,-2.1039,0,-2.038,-2.0413,-2.0467,-2.0532,-2.0579,-2.058,-2.0633,-2.0672,-2.0731,-2.0779,-2.0829,-2.0903,-2.0965,-2.1008,-2.1071,-2.1106,-2.111,-2.1121,-2.1119,-2.1127,-2.1054,-2.1036,-2.1117,-2.1117,-2.1117,-2.1117,-2.1117,-2.1116,-2.043,-2.0501,-2.0521,-2.0613,-2.0646,-2.0712,-2.0742,-2.0783,-2.0821,-2.0903,-2.0954,-2.0982,-2.1029,-2.1095,-2.1152,-2.1163,-2.1186,-2.1197,-2.1209,-2.114,-2.1131,-2.1124,-2.1108,-2.1202,-2.1202,-2.1277,-2.1278,-2.1279]}]]